Other Surface Observations
Issued by NWS

Home | Current Version | Previous Version | Text Only | Print | Product List | Glossary On
Versions: 1 2 3 4 5 6 7 8 9 10 11 12 13 14 15 16 17 18 19 20 21 22 23 24 25 26 27 28 29 30 31 32 33 34 35 36 37 38 39 40 41 42 43 44 45 46 47 48 49 50
797
SXUS52 KTAE 182219
OSOTAE
OSOTAE
North Florida/South Alabama/Southwest Georgia Weather Roundup
National Weather Service Tallahassee Florida
600 PM EDT FRI AUG 18 2017

Note: "fair" indicates few or no clouds below 12,000 feet with no
significant weather and/or obstructions to visibility.

!FLZ017-115-028-034-025-182300
...North Florida...

CITY           SKY/WX    TMP DP  RH WIND       PRES   REMARKS
TALLAHASSEE    CLOUDY    96  71  44 VRB3      29.94S HX 103
APALACHICOLA   CLOUDY    87  81  82 S7        29.97R HX 104
PERRY          CLOUDY    78  74  86 SE8       30.00R
CROSS CITY     CLOUDY    76  75  96 S7        30.05S
JACKSONVILLE   TSTM      83  79  88 W16       29.99R HX  94
$$

!FLZ112-006-005-002-011-182300
...Florida Panhandle...

CITY           SKY/WX    TMP DP  RH WIND       PRES   REMARKS
MARIANNA       MOSUNNY   95  73  48 N5        29.95R HX 104
BONIFAY        NOT AVBL
PANAMA CITY NW LGT RAIN  82  74  76 S5        29.96R
TYNDALL AFB    CLOUDY    87  73  64 N3        29.98R HX  94
TYND DRONE APT MOCLDY    86  74  66 N7        29.98R HX  94
DE FUNIAK SPR  MOCLDY    91  73  53 N6        29.98R HX  99
EGLIN AFB      LGT RAIN  82  75  78 S9        29.97R
DESTIN         CLOUDY    88  75  65 VRB5      29.97R HX  97
HURLBURT       PTSUNNY   88  72  58 W3        29.96R HX  95
CRESTVIEW      SUNNY     95  72  47 N8        29.98R HX 103
PENSACOLA      PTSUNNY   85  74  69 W5        29.97R HX  92
$$

!ALZ063-066-182300
...South Alabama...

CITY           SKY/WX    TMP DP  RH WIND       PRES   REMARKS
DOTHAN         PTSUNNY   92  76  59 N7        29.99S HX 104
OZARK CAIRNS   SUNNY     92  74  55 NW6       29.96S HX 101
FT RUCKER HELI PTSUNNY   92  73  55 N6        29.96S HX 100
RUCKER HELI 3  FAIR      91  73  55 N6        29.97R HX  98
RUCKER HELI 2  PTSUNNY   91  74  57 NW5       29.96S HX 100
FLORALA APT      N/A    N/A N/A N/A MISG      29.99R
ANDALUSIA      MOSUNNY   95  72  47 NW7       29.97S HX 103
TROY           MOSUNNY   91  72  53 W6        29.98S HX  98
EUFALA         FAIR      93  74  53 VRB5      29.95S HX 103
MOBILE         CLOUDY    87  75  67 E5        30.01R HX  96
$$

!GAZ120>161-182300
...Southwest and South Central Georgia...

CITY           SKY/WX    TMP DP  RH WIND       PRES   REMARKS
THOMASVILLE    FAIR      93  70  46 W5        29.96S HX  99
BAINBRIDGE     MOSUNNY   93  73  52 NW10      29.95F HX 102
MOODY AFB      MOSUNNY   86  73  66 S12         N/A  HX  93
VALDOSTA       CLOUDY    81  74  79 S7        29.96S
MOULTRIE       MOSUNNY   91  72  52 NW6       29.95F HX  98
BLAKELY        PTSUNNY   91  73  55 CALM      29.96S HX 100
ALBANY         MOSUNNY   93  72  50 SW6       29.96S HX 101
TIFTON         FAIR      93  72  50 W9        29.94F HX 100
FITZGERALD     FAIR      95  75  53 W8        29.96F HX 107
CORDELE        FAIR      97  72  43 NW7       29.96S HX 106
AMERICUS       MOCLDY    93  64  38 NW9       29.97S HX  95
HOMERVILLE     FAIR      82  72  69 S7        29.97F
$$

!GMZ750-755-770-775-182300
...Coastal and Buoy Obs...

STATION/POSITION TIME  TEMP    WIND        PRES    VSBY  WAVE
                       AIR SEA DIR/SP/G                  HT/PER
                 (UTC) (F)     (DEG/KT/KT) (MB)    (MI)  (FT/S)
KEATON BEACH     2200   80     150/  8/ 11 1015.5R
CEDAR KEY        2200   81      90/  6/  7 1016.7R
C TOWER          2200   82                 1015.8F
APALACHICOLA BUO 2150   83 86  230/  6/  8 1016.0R         1/ 4
PANAMA CITY BUOY 2150   87 88  280/  4/  4 1015.6S         2/ 4
MOBILE BUOY      2200   86 89  270/  4/  6 1015.8
ORANGE BCH AL BU 2150   84 88   10/ 14/ 17 1015.1R         1/ 3
$$




USA.gov is the U.S. government's official web portal to all federal, state and local government web resources and services.